STAR ONE C2

Last updated on Fri Sep 19 2025 00:02:47 GMT+0000 (Coordinated Universal Time)

1 32768U 08018B 25261.22697432 -.00000297 00000+0 00000+0 0 9991 2 32768 0.5426 84.2600 0002694 93.7032 196.1563 1.00271877 63924
UTC large
Height (km)
Speed (km/s)
/
Latitude / Longitude
Inclination (degrees)
Orbital Period (minutes)
Azimuth
Elevation
Range (km)
Doppler Factor

Next 0 passes for location: London (51.5072 / 0.1276)

Sorry there are no passes over London.